Theta_e
302 296 291 294 298 293 292 289 290 290 296 294 294 295 298 299 297 297 299 300 301 304 308 308 309 311 321 323 324 325 326 326 325 323 321 321 319 320 319 321 323 322 322 322
297 291 294 296 297 295 292 289 288 291 295 293 292 292 296 297 297 298 299 299 300 302 304 305 306 308 316 320 323 325 326 327 325 325 325 324 323 322 322 321 321 322 322 322
289 291 297 294 293 294 294 292 287 288 292 293 290 291 293 296 296 298 299 300 301 301 302 304 304 305 310 318 321 324 326 327 327 327 325 321 319 318 318 319 319 318 321 321
293 295 294 293 291 294 288 296 292 291 289 283 290 281 287 291 294 296 298 298 300 301 301 302 304 304 307 316 321 324 326 327 327 327 324 322 321 320 322 322 322 320 318 319
289 291 291 291 292 295 289 296 294 291 288 286 287 284 286 290 291 293 295 297 299 300 300 301 301 303 305 313 318 323 325 326 327 327 327 324 322 324 324 322 321 321 321 319
290 294 294 293 295 297 296 293 291 289 288 282 286 285 286 289 290 293 296 298 298 298 298 299 302 304 305 308 316 319 321 324 326 326 326 325 323 323 323 322 321 322 322 321
288 289 292 296 291 294 295 291 283 281 281 280 286 286 288 291 292 294 296 297 296 297 299 299 299 300 302 303 308 315 318 320 323 325 325 326 325 324 324 323 323 322 322 321
281 278 289 292 293 290 292 291 282 272 276 279 284 283 288 294 297 298 297 296 297 297 297 297 298 298 299 300 302 307 313 317 319 322 323 325 325 325 325 325 325 324 324 324
281 281 290 292 293 295 290 288 290 282 277 276 280 285 292 294 294 294 294 294 294 295 296 296 296 297 297 297 298 301 305 308 314 318 320 322 323 324 325 326 327 326 326 326
284 279 286 291 293 293 291 292 286 286 276 273 278 280 283 287 290 292 291 292 294 294 293 294 295 295 296 296 296 297 299 301 303 306 309 313 318 321 323 325 325 326 327 327
285 282 282 287 287 287 290 287 286 285 284 276 273 279 288 289 291 290 291 293 293 293 293 294 294 294 294 294 295 296 297 298 300 301 302 303 305 308 312 316 319 323 326 327
287 282 278 283 286 292 292 289 288 281 279 281 280 279 289 290 292 291 291 293 293 294 293 293 292 292 293 293 294 294 296 297 297 298 299 299 300 301 302 304 307 312 316 322
289 282 273 279 284 286 286 288 289 286 282 280 279 281 289 289 288 289 290 290 291 291 292 292 291 290 291 291 292 293 294 294 295 296 297 297 298 298 299 299 301 304 307 310
294 283 282 277 280 285 284 287 288 288 282 282 282 284 285 286 287 288 288 290 291 291 288 290 289 288 289 289 289 290 291 292 292 293 293 293 294 296 297 297 298 300 302 303
291 283 279 281 281 285 285 286 287 286 287 282 285 284 287 288 288 290 291 291 287 287 287 286 286 287 286 286 286 288 289 289 289 290 291 291 293 293 294 294 295 296 297 299
290 282 282 278 282 282 278 285 286 287 288 287 285 283 289 288 290 284 283 284 284 283 282 282 283 284 284 283 284 285 285 285 286 286 287 289 290 290 291 292 292 293 294 295
287 283 282 279 281 281 274 280 283 285 285 288 284 288 289 285 282 280 279 280 279 279 280 279 280 280 281 281 282 282 282 283 283 283 285 286 287 287 287 288 289 290 291 293
287 285 282 275 277 273 281 282 285 285 284 286 284 279 279 280 277 276 276 276 276 277 277 277 278 277 279 279 280 280 280 280 281 281 283 284 283 283 284 285 286 287 289 290
291 285 274 275 274 275 278 279 281 281 281 277 276 275 276 278 277 274 274 275 275 275 275 276 276 276 276 277 277 277 277 278 278 279 280 280 280 279 281 281 283 284 285 286
289 288 281 270 272 268 277 278 280 284 278 273 275 273 273 276 274 273 272 273 273 274 274 273 274 274 274 274 275 274 274 275 275 276 276 277 277 278 278 279 280 283 284 285
282 283 279 272 267 270 276 276 279 274 274 273 272 271 271 272 271 271 272 271 272 272 272 273 272 272 272 273 273 272 272 272 274 274 274 275 275 276 277 279 280 279 280 282
280 279 277 272 272 271 270 275 278 273 273 272 269 269 269 269 270 270 270 270 270 270 271 271 270 270 271 272 271 270 270 272 272 272 272 272 272 273 274 274 276 278 281 281
278 282 278 279 276 269 270 270 271 273 271 269 269 268 268 268 267 268 268 269 269 269 270 270 269 269 270 271 270 269 270 271 271 270 269 269 271 273 274 274 275 277 278 279
276 278 273 272 268 268 269 268 269 269 268 268 268 268 267 266 268 268 269 268 268 268 268 268 267 267 267 269 269 269 269 270 268 267 268 269 270 271 273 275 276 276 276 278
272 275 272 269 268 268 268 268 268 268 268 268 268 267 266 267 267 266 266 266 266 266 266 266 266 266 266 267 267 267 268 269 267 267 267 267 268 267 268 270 271 272 274 276
267 269 274 272 270 270 268 267 268 267 266 266 266 265 266 266 265 265 264 265 265 264 264 264 264 264 264 265 265 266 266 266 264 264 265 265 266 266 267 267 268 273 275 277
Wind_Speed
8 12 24 21 15 8 7 5 9 3 4 1 7 14 16 11 6 10 14 9 10 14 15 8 9 9 11 10 12 14 15 17 11 9 8 8 9 8 5 7 10 10 10 10
8 26 8 8 7 6 6 6 8 3 4 3 7 17 17 14 12 13 13 10 10 8 10 11 9 8 9 14 16 15 16 16 15 11 10 9 8 8 8 8 9 10 11 10
14 7 15 14 11 15 15 19 4 3 1 3 5 16 14 9 6 7 7 9 7 11 11 11 10 10 9 12 14 16 17 17 15 16 7 3 0 1 4 6 7 9 11 10
15 9 13 12 17 16 19 8 7 6 4 7 4 12 5 4 7 6 7 8 10 11 8 8 14 13 10 13 13 15 15 15 14 14 11 13 11 12 10 9 7 8 11 12
11 10 9 15 17 13 11 10 13 6 5 3 10 5 5 1 6 7 7 9 11 10 7 9 10 13 12 9 10 13 14 13 13 13 16 12 13 12 8 7 10 11 10 13
6 1 9 10 8 16 7 6 4 5 6 15 26 9 13 10 6 6 7 8 7 6 6 7 7 7 6 5 5 6 7 12 12 13 15 16 17 15 10 10 8 8 7 7
5 14 3 4 7 5 10 11 6 9 12 18 8 10 23 7 7 7 9 8 2 4 6 5 7 8 9 10 7 3 5 7 7 9 10 14 16 12 12 11 8 9 7 8
13 8 19 5 10 9 22 18 7 7 6 8 5 11 13 9 10 9 8 6 5 5 4 3 6 6 7 9 10 9 4 4 3 5 7 8 10 7 8 10 9 9 9 11
15 15 6 7 5 15 12 18 10 4 1 3 5 6 10 9 9 4 3 6 6 5 5 5 7 7 7 8 9 10 10 10 9 6 4 4 5 7 9 12 11 9 11 11
6 5 6 14 3 7 11 7 13 7 7 6 4 3 8 3 3 6 7 8 6 4 4 5 6 7 7 8 7 10 9 9 8 10 10 8 7 6 6 8 11 12 12 12
7 4 3 10 13 16 9 9 4 2 6 5 2 7 8 9 8 11 9 8 7 6 3 5 6 7 7 8 9 9 11 12 13 11 7 7 8 8 8 8 9 10 12 12
8 6 4 15 3 8 16 19 19 7 9 4 2 7 2 5 7 8 8 6 4 2 2 4 6 8 9 9 10 9 11 13 12 11 10 10 8 7 7 7 9 11 11 11
13 5 4 3 4 2 9 8 15 4 3 7 9 8 4 9 7 7 9 5 2 0 6 7 8 9 10 11 12 13 12 13 12 10 9 10 11 11 11 11 12 12 11 11
16 4 16 15 8 8 14 16 12 16 11 11 12 16 3 3 7 6 5 4 2 8 9 10 11 11 11 13 13 14 12 13 14 12 10 8 9 10 10 11 11 12 12 12
14 18 3 1 1 5 11 20 18 16 24 14 22 14 9 8 7 8 6 4 12 13 14 13 12 11 12 13 13 12 12 13 14 13 11 11 11 9 10 10 11 12 12 12
8 9 6 1 2 6 1 12 16 22 19 16 7 7 5 4 5 10 9 10 11 10 10 10 10 10 11 13 13 13 12 14 14 13 13 13 13 13 12 12 12 12 12 13
16 7 10 16 3 5 7 12 10 7 5 13 19 10 6 5 8 6 8 10 10 10 10 11 11 11 12 13 13 13 14 13 13 13 14 13 13 15 15 15 15 14 14 13
17 17 3 4 5 10 6 4 13 16 9 13 5 5 7 8 11 10 10 9 9 10 11 10 10 12 12 12 12 13 13 13 14 13 13 12 15 18 17 17 16 16 15 15
14 8 4 5 6 4 3 5 9 10 13 3 9 7 4 9 6 3 9 9 7 8 7 8 9 11 11 12 14 15 14 14 15 16 17 18 19 21 20 20 20 17 17 17
8 12 7 3 6 10 6 4 4 6 15 5 8 7 4 7 6 4 6 7 6 7 7 10 10 10 10 12 13 14 14 16 17 18 19 19 19 19 21 21 21 17 16 19
7 7 11 4 3 8 1 4 6 9 3 9 11 6 3 4 2 3 7 7 7 8 10 9 9 11 12 12 13 13 13 14 15 16 17 17 17 19 19 20 18 21 21 21
9 7 5 4 2 10 5 2 9 5 9 12 9 6 6 3 4 6 8 9 10 10 12 13 11 12 12 13 13 14 15 16 17 18 18 18 18 15 15 21 19 19 19 20
4 4 8 4 4 5 6 9 8 5 9 6 8 6 4 3 2 4 6 7 10 12 13 13 13 15 13 13 14 16 17 18 18 17 18 18 17 16 16 17 20 16 16 17
3 4 6 6 5 6 8 7 8 9 10 9 7 5 4 4 4 6 7 9 10 11 12 12 13 14 13 14 16 15 17 17 17 18 18 17 17 17 16 13 13 15 16 15
3 3 8 6 9 7 3 4 5 8 8 9 7 6 6 4 5 7 6 7 8 10 11 11 12 13 14 14 14 14 15 15 16 17 17 17 14 16 17 14 13 15 17 18
3 1 3 2 12 3 7 8 4 7 6 7 6 6 6 6 6 6 5 5 6 8 9 10 11 12 13 13 15 15 13 14 16 16 13 13 14 14 14 16 18 24 33 37
Wind_Direction
180 190 212 200 206 196 171 191 211 205 232 258 237 258 264 269 255 261 266 250 249 260 270 255 255 239 227 220 213 205 195 198 190 197 197 205 214 213 205 214 217 209 218 215
184 221 184 174 180 199 188 211 220 287 241 227 280 268 271 264 253 244 249 255 239 251 273 273 263 254 216 216 211 215 210 197 193 198 208 213 196 217 216 207 215 211 213 215
202 226 162 177 187 203 220 223 146 186 151 259 343 284 256 252 241 234 239 238 256 235 248 267 277 256 234 215 208 210 212 206 203 201 188 185 276 210 188 207 209 211 214 212
225 227 197 187 207 193 221 173 160 182 145 243 142 276 241 241 260 236 244 242 246 254 248 259 269 275 237 227 212 212 212 206 204 193 186 202 211 227 225 222 214 209 197 209
207 162 175 196 209 172 225 166 198 185 218 10 258 259 290 277 267 272 262 249 250 258 271 288 297 279 265 237 214 207 209 205 204 194 202 194 213 230 225 216 216 209 205 207
206 309 172 200 179 183 134 88 108 144 179 234 239 205 261 232 223 237 231 246 266 322 321 316 297 333 333 303 248 223 207 207 194 194 205 209 212 221 219 222 229 235 226 217
210 240 277 169 138 148 190 160 194 208 214 235 163 196 249 243 240 217 223 252 41 33 64 39 24 24 21 17 354 256 199 222 210 209 216 222 229 235 224 225 226 233 229 223
195 219 209 192 201 186 201 205 184 202 207 222 152 208 242 228 249 250 253 218 145 125 83 53 27 26 34 21 18 25 359 298 261 224 221 231 237 235 237 243 232 236 234 236
189 225 185 173 146 170 192 219 195 126 75 79 202 281 308 244 252 232 229 138 131 103 70 13 29 30 36 38 24 23 23 24 11 345 314 264 240 236 244 247 246 242 240 241
204 193 210 185 113 218 180 146 208 218 182 209 249 259 230 255 231 130 111 116 110 98 48 31 36 27 17 30 34 33 30 40 25 24 15 1 340 320 280 267 266 258 256 250
154 130 247 149 202 194 186 211 211 178 155 187 206 251 220 203 173 160 150 146 143 119 73 26 28 24 25 35 31 32 35 33 31 26 18 13 2 350 343 332 314 298 280 264
182 141 161 206 272 182 209 210 207 207 213 225 136 265 323 215 150 135 147 152 151 104 51 33 29 25 30 31 31 27 28 31 21 11 12 9 2 352 349 337 325 321 310 301
172 194 91 24 358 277 202 207 208 167 81 197 211 247 32 119 129 151 146 163 198 235 44 40 41 41 37 32 26 22 22 15 13 4 359 358 357 354 348 341 334 331 325 316
165 147 201 206 221 141 205 204 198 203 215 215 210 236 98 118 132 157 168 187 183 54 45 51 43 38 27 22 17 9 12 6 359 354 355 344 345 338 334 332 329 328 323 316
183 211 143 242 106 198 202 212 205 202 220 200 228 227 192 189 171 192 216 44 64 53 46 37 28 22 23 9 3 359 5 353 350 344 340 336 330 325 327 327 325 323 319 312
160 211 155 196 69 79 105 208 205 212 223 231 268 253 179 173 152 70 64 74 69 56 40 31 23 13 4 358 354 350 351 344 340 335 329 326 329 332 328 323 319 313 306 304
182 153 175 219 139 78 291 208 196 194 186 204 231 231 165 114 99 62 61 60 55 37 26 19 7 2 352 350 345 344 339 330 328 326 326 327 331 330 326 320 315 310 303 299
185 188 160 146 142 207 264 177 183 201 199 220 127 90 74 104 94 81 50 46 37 23 14 360 352 345 346 339 338 333 327 325 327 327 328 331 334 325 321 316 311 309 304 301
185 159 117 162 179 299 304 176 147 167 234 125 119 118 105 135 121 85 37 31 23 12 351 345 342 340 332 336 336 329 329 332 333 336 336 336 331 322 319 314 311 309 303 299
177 174 150 160 157 207 220 105 354 93 257 103 113 123 167 156 190 132 14 9 1 353 354 340 342 332 334 337 334 332 335 334 334 335 330 327 321 316 312 308 305 304 300 295
175 186 191 147 181 284 58 328 301 155 215 102 97 87 36 113 44 355 356 350 350 350 347 350 342 343 339 335 338 335 331 329 326 321 317 317 316 312 305 304 308 303 296 289
166 153 153 90 122 262 4 299 186 71 91 109 96 87 90 60 8 356 349 347 347 349 355 358 351 344 342 341 339 334 329 329 324 320 317 314 308 302 299 294 296 292 293 297
194 191 167 177 193 89 32 95 78 84 119 104 113 106 103 100 32 352 346 351 356 0 356 356 348 337 340 342 342 330 326 324 319 313 306 304 301 298 294 293 294 292 292 289
8 1 89 128 146 125 113 89 82 87 104 106 94 101 87 72 38 22 7 7 1 357 351 346 341 338 333 337 332 322 319 317 313 309 306 307 304 301 298 296 296 292 288 288
352 349 121 82 122 109 120 101 113 107 103 101 92 80 74 58 45 21 10 1 354 345 341 340 335 328 322 320 318 314 316 319 317 314 313 310 308 308 303 298 296 287 282 278
22 22 194 163 151 98 128 132 115 106 96 80 81 82 63 51 36 11 355 347 343 336 328 327 322 316 311 315 315 316 317 319 316 310 310 312 314 314 307 303 298 285 288 288